DANTESAT

Last updated on Wed Feb 08 2023 00:02:07 GMT+0000 (Coordinated Universal Time)

1 55127U 98067UU 23037.79618106 .11098045 12202-4 16090-2 0 9990 2 55127 51.6133 246.6422 0010258 262.3891 98.1925 16.33682087 6244

Satellite not in orbit